Location: Madrid
(40.4167°N, 3.7036°W)
Time: 11:44:56
(UTC+00:00)

ISS - Pass Details

Date: 06 March 2026
Orbit: 416 x 427 km, 51.6° (Epoch: 6 March)

Event Time Altitude Azimuth Distance (km) Brightness Sun altitude
Exits shadow 05:54:09 12° 244° (WSW) 1,375 -1.7 -9.7°
Maximum altitude 05:54:50 13° 231° (SW) 1,341 -1.7 -9.6°
Drops below altitude 10° 05:56:20 10° 204° (SSW) 1,481 -1.2 -9.3°
Sets 05:59:21 0° 174° (S) 2,337 0.1 -8.7°
